www.pogodaiklimat.ru

Погода и климат >> Архив погоды >> Аргентина >> Buenos Aires


ПОГОДА в Buenos Aires

  • Прогноз погоды в Buenos Aires
  • Монитор погоды в Buenos Aires
  • Климат города

АРХИВ ПОГОДЫ в Buenos Aires

Время (UTC), дата Ветер
(напр.,м/с)
 
Видим.   Явления Облачность Т
(С)
Тd
(С)
f
(%)
Тe
(С)
Тes
(С)
Комфортность P
(гПа)
Po
(гПа)
Тmin
(С)
Tmax
(С)
R
(мм)
R24
(мм)
S
(см)
00 18.05 СВ 4 10 км ясно +16.4 +13.6 84 +16 +16 1016.2 1013.2 +14.2 +19.2
03 18.05 С 4 10 км 9/0
[Cs]
+15.8 +12.2 79 +15 +15 1015.8 1012.8
06 18.05 СЗ 1 10 км 10/10 450 м
[St]
+15.2 +11.9 81 +16 +16 1014.9 1012.0
09 18.05 СВ 4 8000 м слабая морось 10/10 450 м
[St]
+15.4 +12.9 85 +15 +15 1013.4 1010.4
12 18.05 С 1 10 км {морось} 10/10 450 м
[St]
+15.4 +14.5 94 +16 +16 1013.0 1010.0 +15.0 +16.5 0.0
15 18.05 СВ 2 10 км 10/10 450 м
[St]
+17.2 +14.6 85 +17 +17 1011.7 1008.6
18 18.05 В 4 10 км 10/5 450 м
[St Ac As]
+17.3 +15.6 90 +17 +17 1008.7 1005.7
21 18.05 СВ 1 10 км {морось} 10/6 450 м
[St Ac As]
+18.0 +15.7 86 +19 +19 1008.5 1005.4
00 19.05 СВ 2 7000 м слабый дождь {морось} 10/8 360 м
[St As op]
+17.2 +16.5 96 +18 +18 1007.8 1004.8 +15.4 +18.1 2
03 19.05 СВ 3 10 км {дождь} 10/10 450 м
[St]
+18.0 +16.2 89 +18 +18 1005.5 1002.6
06 19.05 С 1 8000 м слабый дождь 10/6 360 м
[St As op]
+17.7 +16.9 95 +19 +19 1004.7 1001.8 0.1
09 19.05 С 1 7000 м слабый дождь 10/8 360 м
[St As op]
+16.9 +16.7 99 +18 +18 1003.3 1000.4
12 19.05 З 2 10 км {дождь, морось} 10/10 450 м
[St]
+16.4 +16.4 100 +17 +17 1004.6 1001.6 +16.3 +18.0 4
15 19.05 З 4 10 км 10/8 450 м
[St As trans]
+15.3 +14.3 94 +14 +15 1005.3 1002.2
18 19.05 ЮЗ 5 10 км 6/6 600 м
[Sc]
+17.4 +13.0 75 +17 +18 1004.4 1001.4
21 19.05 З 3 10 км 9/9 540 м
[Sc]
+13.6 +10.0 79 +12 +12 1006.0 1003.0
00 20.05 З 4 10 км 10/10 450 м
[St]
+12.7 +9.2 79 +11 +11 1006.7 1003.7 +12.7 +17.6
03 20.05 З 2 10 км 9/9 450 м
[St]
+12.4 +10.5 88 +11 +11 1006.1 1003.0
06 20.05 СЗ 2 10 км 10/10 450 м
[St]
+11.7 +9.3 85 +11 +11 1006.9 1003.8
09 20.05 СЗ 2 10 км 10/10 450 м
[St]
+10.4 +8.2 86 +9 +9 1007.5 1004.5
12 20.05 З 2 10 км в посл. час морось 8/6 450 м
[St Ac As Cs]
+9.8 +8.2 90 +8 +8 1008.8 1005.8 +9.5 +13.0 0.0
15 20.05 З 4 10 км 10/10 450 м
[Frnb]
+11.2 +7.1 76 +9 +9 1010.0 1007.0
18 20.05 З 4 8000 м слабый дождь 10/5 360 м
[Frnb As op]
+11.8 +7.7 76 +10 +10 1009.2 1006.2 0.0
21 20.05 СЗ 3 10 км {дождь} 10/10 450 м
[Frnb]
+10.5 +8.7 89 +8 +8 1009.9 1006.9
00 21.05 СЗ 5 10 км {дождь, морось} 10/10 450 м
[St]
+10.0 +9.0 93 +7 +7 1010.9 1007.8 +9.8 +12.5 1
03 21.05 СЗ 4 10 км в посл. час морось 10/10 240 м
[St]
+10.4 +9.8 96 +8 +8 1010.7 1007.7
06 21.05 СЗ 4 10 км 10/10 240 м
[St]
+11.0 +10.3 95 +9 +9 1009.3 1006.3 0.9
09 21.05 З 2 8000 м слабая морось 10/10 240 м
[St]
+10.8 +10.0 95 +9 +9 1009.0 1006.0
12 21.05 СЗ 2 10 км {дождь, морось} 10/8 300 м
[St Ac As]
+11.2 +10.4 95 +10 +10 1010.2 1007.2 +9.6 +11.2 2
15 21.05 СЗ 3 10 км в посл. час морось 10/8 300 м
[St Ac As]
+12.9 +11.2 89 +11 +12 1010.7 1007.7
18 21.05 З 3 10 км {морось} 3/0
[Ac As]
+17.6 +10.2 62 +18 +21 1009.5 1006.5 0.3
21 21.05 штиль 0 10 км ясно +16.9 +10.4 66 +17 +17 1010.8 1007.8
00 22.05 З 1 10 км ясно +14.2 +10.6 79 +15 +15 1013.2 1010.2 +11.2 +18.6
03 22.05 штиль 0 10 км ясно +12.7 +10.4 86 +12 +12 1015.0 1012.0
06 22.05 З 1 10 км ясно +10.8 +10.0 95 +11 +11 1015.3 1012.2
09 22.05 СЗ 1 10 км 6/0
[Ac As Cs]
+11.1 +10.3 95 +11 +11 1015.9 1012.9
12 22.05 СЗ 1 10 км 6/0
[Ac As Ci]
+13.8 +10.4 80 +14 +15 1017.7 1014.6 +9.9 +14.2 0.3
15 22.05 С 3 10 км 1/0
[Ci fib]
+20.2 +10.6 54 +22 +28 комфорт 1018.2 1015.2
18 22.05 С 2 10 км 4/0
[Cs]
+21.0 +9.8 49 +23 +28 комфорт 1017.3 1014.4
21 22.05 В 2 10 км 9/0
[Cs]
+17.6 +10.8 64 +18 +18 1017.2 1014.2
00 23.05 СВ 2 10 км 10/0
[Ac As Cs]
+17.1 +12.3 73 +17 +17 1018.3 1015.3 +13.8 +21.5
03 23.05 С 1 10 км дымка 9/0
[Ac As Cs]
+16.3 +12.3 77 +17 +17 1020.0 1017.0
06 23.05 С 2 10 км 9/0
[Cs]
+15.1 +12.0 82 +15 +15 1019.4 1016.4
09 23.05 СВ 3 10 км 10/0
[Cs]
+15.1 +12.6 85 +14 +14 1018.1 1015.2
12 23.05 С 1 10 км 4/0
[Ac As Ci fib]
+15.9 +12.3 79 +17 +17 1018.3 1015.3 +15.0 +17.2
15 23.05 С 3 10 км ясно +19.8 +12.2 62 +22 +28 комфорт 1017.8 1014.8
18 23.05 С 2 10 км ясно +20.4 +10.8 54 +23 +28 комфорт 1014.4 1011.4
21 23.05 СВ 2 10 км ясно +17.2 +12.2 72 +18 +18 1013.3 1010.2
00 24.05 СВ 1 10 км ясно +14.7 +13.6 93 +16 +16 1013.3 1010.2 +14.7 +20.6
03 24.05 СЗ 1 10 км 10/0
[Ac As]
+16.8 +14.9 89 +18 +18 1013.6 1010.6
06 24.05 штиль 0 10 км 10/0
[Ac As]
+16.0 +15.1 94 +16 +16 1013.2 1010.2
09 24.05 С 1 10 км 10/0
[Ac As]
+16.8 +14.7 87 +18 +18 1012.8 1009.8
12 24.05 ЮЗ 3 10 км 10/0
[Ac As]
+16.8 +15.1 90 +17 +17 1013.7 1010.6 +14.6 +16.8
15 24.05 штиль 0 10 км {морось} 10/0
[Ac As]
+18.4 +16.2 87 +19 +22 1013.6 1010.6
18 24.05 В 1 10 км {морось} 10/0
[Ac As]
+18.2 +16.2 88 +20 +21 1012.0 1009.0 0.1

 

Местоположение метеостанции Buenos Aires (Аргентина): широта -34.58 долгота -58.48 высота над уровнем моря 25 м.

В архиве по умолчанию представлена погода в Buenos Aires за последнюю неделю. Архивные данные за месяц целиком и за предыдущие месяцы, начиная с января 2011 года, Вы можете получить, выбрав интересующий диапазон дат из раскрывающегося списка и нажав кнопку "Ввод!".

Внимание! Время в таблицах - всемирное. Для получения местного времени необходимо прибавить поправку, которая в Buenos Aires равна -3 ч.

Смотрите также архив погоды в соседних городах и на ближайших метеорологических станциях:

Погода в Buenos Aires Aeropuerto (Аргентина) (7 км)
Погода в Ezeiza (Аргентина) (26 км)
Погода в Colonia (Уругвай) (61 км)
Погода в La Plata (Аргентина) (68 км)
Погода в Mercedes (Уругвай) (153 км)
Погода в Las Flores (Аргентина) (175 км)
Погода в Gualeguaychu (Аргентина) (176 км)
Погода в Melilla (Уругвай) (205 км)
Погода в Dolores (Аргентина) (205 км)
Погода в Prado (Уругвай) (211 км)

Пояснения к столбцам:

Ветер - указаны скорость ветра в м/с - средняя за 10 мин, порывы в срок и между сроками (в фигурных скобках) и направление, откуда дует ветер: С - северный, СВ - северо-восточный, В - восточный, ЮВ - юго-восточный, Ю - южный, ЮЗ - юго-западный, З - западный, СЗ - северо-западный.
Видимость - горизонтальная дальность видимости в метрах или километрах. При видимости от 1 до 10 км при отсутствии осадков обычно наблюдается дымка, при ухудшении видимости до 1 км и менее - туман. В сухую погоду видимость может ухудшаться дымом, пылью или мглою.
Явления - указаны атмосферные явления, наблюдавшиеся в срок или в последний час перед сроком; фигурными скобками обозначены явления, наблюдавшиеся между сроками (за 1-3 часа до срока); квадратными скобками обозначены град или гололедные отложения с указанием их диаметра в мм.
Облачность - указаны через наклонную черту общая и нижняя облачность в баллах и высота нижней границы облаков в метрах; квадратными скобками обозначены формы облаков: Ci - перистые, Cs - перисто-слоистые, Cc - перисто-кучевые, Ac - высококучевые, As - высокослоистые, Sc - слоисто-кучевые, Ns - слоисто-дождевые, Cu - кучевые, Cb - кучево-дождевые. Подробнее классификацию облаков см. в Атласе облаков (PDF).
T - Температура воздуха - температура, измеренная на высоте 2 м над землей.
Td - Температура точки росы - температура, при понижении до которой содержащийся в воздухе водяной пар достигнет насыщения.
f - Относительная влажность воздуха - влажноcть воздуха, измеренная на высоте 2 м над землей.
Te - Эффективная температура - температура, которую ощущает одетый по сезону человек в тени. Характеристика душности погоды. При расчете учитывается влияние влажности воздуха и скорости ветра на теплоощущения человека.
Tes - Эффективная температура на солнце - температура, которую ощущает человек, с поправкой на солнечный нагрев. Характеристика знойности погоды. Зависит от высоты солнца над горизонтом, облачности и скорости ветра. Ночью, в пасмурную погоду, а также при ветре 12 м/с и более поправка равна нулю.
P - Атмосферное давление - приведенное к уровню моря атмосферное давление.
Po - Атмосферное давление - измеренное на уровне метеостанции атмосферное давление.
Tmin - Минимальная температура - минимум температуры воздуха на высоте 2 м над землей.
Tmax - Максимальная температура - максимум температуры воздуха на высоте 2 м над землей.
R - Количество осадков - Количество выпавших осадков за период времени, мм. При наведении курсора мыши на число - период времени, за который выпало указанное количество осадков.
R24 - Количество осадков - Количество выпавших осадков за 24 часа, мм.
S - Снежный покров - Высота снежного покрова, см. При наведении курсора мыши на число - состояние снежного покрова и степень покрытия местности в баллах.